MMCL

Details ICAO MMCL (CUL)
Name CULIACAN INTL
Region Mexico
Timezone America/Mazatlan (UTC-7.0)
Plans Departing 86
Arriving 93
Stats Elevation 108 ft / 33 m (AMSL)
Location 24.765700° -107.476000°
Runways 1
Magnetic Variation 7.723° E
Sunrise 2019-03-21 13:14:19 UTC / 2019-03-21 06:14:19 Local
Sunset 2019-03-22 01:22:28 UTC / 2019-03-21 18:22:28 Local
Advertisement - Login to hide

Runways

ID Width Length Bearing (true/mag) Surface Threshold Overrun Markings Lighting
02 148 ft / 45 m 7,568 ft / 2,307 m 32.85° / 25.13° ASPHALT 0 ft / 0 m 0 ft / 0 m APP EDGE THRESHOLD REIL-OMNI
20 148 ft / 45 m 7,568 ft / 2,307 m 212.85° / 205.13° ASPHALT 886 ft / 270 m 0 ft / 0 m APP EDGE THRESHOLD REIL-OMNI

Map

Weather


0- 5 10 15 20 25 30 35+ Temperature / °C

Clouds and Precipitation
Forecast for 2019-03-22 00:00 UTC. Updated 5 hours ago

Ground ~20,000 ft ~40,000 ft Winds

METAR

Not found

TAF

TAF MMCL 211655Z 2118/2218 25010KT P6SM SKC FM220300 34005KT P6SM SKC

Frequencies

Recorded 127.80 MHz ATIS
Approach 119.75 MHz
Tower 118.50 MHz
Warning: Do not use this data for real-world aviation or navigation. No guarantee of current accuracy is given.